Wind_Speed
18 18 18 18 18 19 20 20 20 20 20 20 20 20 21 21 21 22 22 23 23 24 25 26 27 27 28 28 29 29 30 31 32 33 34 34 36 37 38 39 39 40 40
18 18 18 18 18 18 19 20 19 20 20 19 19 20 21 22 22 22 22 23 23 24 24 25 26 27 27 28 29 30 30 31 32 33 34 35 36 37 38 39 39 39 40
19 19 18 18 18 18 19 19 19 19 19 18 19 20 21 22 22 22 22 22 22 23 24 24 25 26 28 29 29 30 30 31 32 33 34 35 37 37 38 38 39 39 39
19 19 18 18 18 18 19 19 20 19 19 19 20 21 21 21 21 21 22 22 23 24 24 25 26 27 27 28 28 29 30 31 32 34 35 36 36 37 37 37 37 37 37
19 19 18 18 19 19 19 19 19 19 19 20 21 21 22 22 22 22 22 23 24 24 25 26 26 27 27 28 29 30 31 32 32 33 34 34 35 35 35 35 36 35 35
20 19 19 18 19 19 20 20 20 20 20 21 21 22 22 22 22 22 23 23 24 24 25 25 26 26 27 28 29 30 31 31 31 32 32 32 33 33 33 33 33 32 32
19 18 17 17 17 18 18 18 19 20 21 21 21 21 21 22 22 22 23 23 23 23 24 24 25 25 26 27 28 29 29 29 30 30 31 31 31 31 31 30 30 29 29
17 16 16 16 16 16 15 16 17 17 17 18 18 18 19 19 19 20 20 21 21 22 22 23 24 24 25 26 27 28 28 28 28 28 29 29 29 28 28 27 27 27 27
14 14 13 13 14 14 14 14 15 15 16 16 16 17 17 17 18 18 18 19 20 20 21 22 22 23 24 24 25 25 26 26 26 27 27 27 26 26 26 25 25 24 24
12 11 11 12 12 13 13 13 14 14 14 14 14 15 16 16 16 17 17 18 19 19 20 20 21 21 22 22 22 23 23 24 24 24 24 24 23 23 23 22 22 21 21
10 9 9 10 10 11 11 12 13 12 12 13 13 13 14 14 15 15 16 16 17 18 18 19 19 19 19 19 19 19 20 20 20 21 21 21 20 20 20 19 19 18 18
7 7 7 7 7 8 8 9 10 10 11 11 11 11 12 13 13 13 14 14 15 15 16 16 16 16 16 16 17 17 17 17 18 18 18 18 18 18 17 17 16 16 15
4 5 5 5 5 5 5 5 6 7 7 7 8 8 9 10 11 12 12 11 12 12 12 12 12 13 13 14 14 15 15 16 16 16 16 15 15 15 15 14 13 13 12
4 3 3 3 2 2 2 2 2 3 3 4 5 6 6 7 8 8 8 8 8 9 9 10 11 12 12 13 13 13 14 13 13 13 13 13 13 13 12 11 10 10 10
4 3 3 2 1 0 0 1 1 2 2 3 3 4 4 4 5 5 6 6 6 7 8 9 10 11 11 11 11 11 11 11 11 11 11 11 11 10 9 9 8 8 8
3 3 3 2 2 2 2 2 3 3 3 3 3 3 4 4 4 4 5 5 6 7 8 9 9 10 10 10 9 9 10 10 10 10 9 9 9 8 8 8 7 7 6
4 4 4 3 3 4 4 4 4 4 4 5 5 5 5 5 5 5 5 6 6 7 8 8 8 9 9 9 9 9 9 9 9 9 8 8 8 8 7 7 7 6 6
5 5 5 5 5 5 5 5 5 5 6 6 6 6 6 6 7 7 7 7 8 8 9 9 9 9 9 9 10 9 9 10 9 9 9 8 8 8 7 7 7 6 5
7 7 7 7 7 7 7 8 8 8 8 8 9 9 9 9 9 9 9 9 10 10 10 11 11 11 11 11 11 11 11 11 11 10 9 9 8 8 8 7 7 7 6
9 9 9 9 10 10 11 11 11 11 11 11 11 11 11 11 10 10 10 10 11 11 12 12 12 12 12 12 12 12 12 12 12 12 11 10 10 9 9 8 8 8 7
12 12 12 12 13 13 13 13 13 14 14 13 13 12 12 12 12 11 11 11 11 11 12 12 12 13 13 13 13 13 13 13 13 13 12 12 11 10 10 9 9 9 8
14 14 14 14 14 15 15 14 14 14 14 14 14 13 13 13 12 12 12 12 12 12 12 12 12 13 13 13 13 13 13 13 13 13 13 13 12 12 11 11 10 10 9
16 15 15 15 15 15 14 14 14 15 14 14 14 14 14 14 14 13 13 13 13 13 12 12 12 13 13 13 13 14 14 14 13 13 13 13 13 13 12 12 11 11 11
16 16 16 16 15 15 15 15 15 14 14 14 14 14 14 14 14 14 14 14 13 13 13 13 13 13 13 14 14 14 14 14 14 14 14 14 14 13 13 13 13 12 12
17 16 16 16 15 15 15 14 14 14 14 14 14 14 14 14 14 14 15 15 14 14 14 14 14 14 14 14 15 14 14 14 14 14 15 14 14 14 14 14 14 14 14
16 16 16 15 15 14 14 14 14 14 14 14 14 14 14 13 13 14 14 14 15 15 15 15 15 15 15 15 15 15 15 15 15 15 15 15 15 15 15 15 15 15 15
Wind_Direction
271 269 267 264 262 260 257 256 252 248 247 244 243 244 247 250 250 249 250 251 251 250 250 251 252 253 255 258 260 262 264 267 269 271 272 274 275 277 278 280 282 284 285
270 269 265 262 260 257 255 254 252 250 250 248 246 248 249 249 249 250 250 250 251 251 252 253 254 254 257 259 261 265 266 267 270 273 274 275 277 279 280 282 284 285 286
270 268 266 262 259 255 252 251 252 252 252 249 249 251 252 251 250 250 250 250 252 254 255 258 259 260 261 261 263 264 266 268 272 274 275 277 279 280 282 283 285 286 288
269 267 264 260 258 254 248 247 250 251 250 250 251 252 254 254 253 252 253 253 255 257 259 261 262 263 264 265 266 268 270 271 273 274 276 278 280 282 283 284 285 287 288
265 263 261 260 258 254 249 249 249 248 248 252 253 254 256 255 255 256 257 257 259 262 263 264 265 266 266 269 270 271 272 273 275 277 278 280 282 284 285 286 286 287 288
262 261 258 257 256 253 250 250 250 250 253 257 257 255 256 256 257 258 258 260 262 263 264 266 267 269 270 271 273 273 274 276 279 280 281 283 284 285 286 286 286 287 288
263 261 255 255 254 253 253 251 252 253 255 257 257 257 257 259 259 259 260 262 263 265 266 268 270 271 272 273 275 277 279 280 281 282 283 285 286 287 287 288 288 289 289
260 256 253 252 251 252 254 252 251 251 251 254 255 257 259 261 260 260 262 263 265 268 270 272 274 275 277 278 280 281 282 283 284 285 285 287 288 288 288 289 289 290 290
253 252 249 249 249 248 250 250 252 252 253 254 257 259 260 260 261 262 264 266 269 272 274 276 278 280 281 282 283 285 285 286 286 286 287 288 289 289 289 290 291 291 290
246 244 244 246 246 248 250 251 252 255 257 256 257 258 259 262 263 263 267 270 273 275 278 281 283 285 285 286 288 289 289 290 290 290 291 291 291 291 291 292 292 291 290
240 241 244 245 245 247 250 253 252 253 256 258 260 260 263 266 269 268 271 275 278 279 282 284 285 287 287 289 292 294 295 296 296 295 294 293 293 293 293 293 293 293 293
232 233 236 237 241 246 251 251 248 251 256 260 265 267 268 269 275 275 279 282 284 285 286 287 288 289 292 295 298 299 300 301 300 298 297 297 297 296 296 296 295 294 294
217 219 222 227 235 243 251 256 254 255 256 259 267 273 274 275 278 282 282 282 284 288 292 295 297 299 301 302 303 303 303 303 303 302 302 301 300 301 300 299 298 297 296
185 188 197 205 221 247 268 269 260 262 269 277 283 282 281 280 281 284 287 289 296 302 307 310 310 311 311 310 310 309 309 308 308 308 307 307 307 306 305 304 303 302 301
158 155 153 153 160 152 36 49 41 18 350 327 319 310 304 303 304 309 313 318 321 321 321 320 320 322 323 324 324 323 322 321 320 319 318 317 317 316 314 313 312 310 308
140 138 137 130 105 62 50 51 50 39 29 25 21 12 360 350 347 346 346 344 342 339 337 336 337 338 338 338 338 337 335 334 332 331 331 331 330 329 327 324 322 320 318
113 109 107 100 85 70 66 63 58 52 48 44 39 32 25 22 19 16 11 9 7 3 1 359 357 356 356 356 354 352 350 350 350 348 346 345 344 342 339 336 334 333 331
103 102 99 95 88 80 74 72 67 63 60 58 58 57 55 50 47 45 42 39 35 30 24 20 18 16 14 12 11 9 7 6 4 2 0 360 360 359 357 354 352 350 347
100 98 95 92 89 85 81 78 78 78 76 75 74 71 67 64 60 56 51 47 44 39 36 34 32 30 27 26 24 22 20 17 16 15 14 13 12 11 10 8 5 1 357
97 95 94 93 92 89 87 85 84 83 81 80 78 74 70 65 61 57 53 52 49 45 42 39 38 36 34 32 30 28 27 26 24 23 21 18 15 13 11 8 5 1 358
95 94 94 95 93 91 89 87 86 84 81 78 75 71 68 64 60 58 54 51 48 44 41 40 38 36 34 32 30 28 27 26 25 24 23 21 19 16 13 9 6 2 358
94 93 95 95 93 92 91 88 86 82 78 75 72 68 65 62 59 56 52 49 47 45 42 39 37 34 31 29 28 27 25 23 22 21 21 20 17 14 10 7 3 0 357
95 94 95 95 94 93 91 87 83 80 76 72 69 66 64 61 59 56 52 48 45 42 39 37 34 31 27 24 23 22 22 20 19 17 15 14 12 9 7 5 2 358 354
94 93 93 93 92 90 88 85 82 78 73 70 67 65 63 60 57 53 49 45 42 39 36 33 30 27 24 22 20 19 18 17 15 13 10 8 6 4 3 1 357 353 349
93 92 91 90 88 87 85 82 79 75 71 68 65 63 60 58 54 51 48 44 41 37 33 30 27 25 23 20 18 17 15 14 12 9 6 4 2 359 357 355 352 349 345
91 90 89 87 85 83 80 78 76 73 70 68 65 61 57 54 50 47 44 41 38 35 33 30 27 24 21 19 16 13 11 8 6 4 2 359 357 354 351 349 346 344 342
Height
5749 5749 5749 5750 5750 5751 5752 5753 5754 5755 5757 5758 5760 5761 5763 5765 5767 5768 5770 5772 5773 5774 5775 5776 5776 5777 5778 5778 5778 5778 5778 5778 5777 5776 5775 5774 5772 5771 5769 5767 5764 5762 5760
5744 5744 5744 5745 5745 5746 5747 5748 5749 5750 5752 5753 5755 5756 5758 5759 5761 5762 5764 5765 5766 5767 5768 5769 5769 5770 5770 5771 5771 5770 5770 5769 5769 5767 5766 5765 5764 5762 5759 5757 5755 5752 5750
5739 5739 5739 5740 5740 5741 5742 5743 5744 5745 5746 5748 5749 5751 5752 5754 5755 5756 5757 5758 5760 5761 5761 5762 5762 5763 5763 5763 5762 5762 5761 5761 5760 5759 5758 5756 5754 5752 5750 5748 5745 5743 5740
5734 5734 5734 5734 5735 5736 5737 5738 5739 5740 5742 5743 5744 5745 5747 5748 5749 5750 5751 5752 5753 5754 5755 5755 5756 5756 5756 5755 5755 5754 5753 5753 5752 5750 5749 5747 5745 5743 5741 5739 5736 5734 5731
5728 5728 5729 5729 5730 5731 5732 5733 5734 5735 5736 5738 5739 5740 5741 5742 5743 5744 5745 5746 5747 5748 5748 5748 5748 5748 5748 5748 5747 5746 5745 5744 5743 5741 5740 5738 5736 5734 5732 5729 5727 5725 5722
5723 5723 5724 5725 5725 5726 5727 5728 5729 5730 5731 5733 5734 5735 5736 5736 5737 5738 5739 5740 5741 5741 5741 5741 5741 5741 5740 5740 5739 5738 5737 5736 5734 5733 5731 5729 5727 5725 5723 5721 5719 5716 5714
5717 5718 5719 5719 5720 5721 5722 5723 5724 5725 5726 5727 5729 5729 5730 5731 5732 5732 5733 5734 5734 5735 5735 5735 5734 5734 5733 5732 5731 5730 5729 5727 5726 5725 5723 5721 5719 5717 5715 5713 5711 5709 5707
5712 5713 5714 5715 5716 5717 5718 5718 5720 5721 5722 5723 5723 5724 5725 5726 5726 5727 5728 5728 5729 5729 5728 5728 5727 5727 5726 5725 5724 5722 5721 5719 5718 5716 5715 5713 5711 5709 5707 5706 5704 5702 5700
5708 5709 5710 5711 5712 5713 5714 5715 5716 5717 5718 5718 5719 5720 5721 5721 5722 5722 5723 5723 5723 5723 5723 5722 5721 5720 5719 5718 5717 5715 5714 5712 5710 5709 5707 5706 5704 5702 5701 5699 5697 5695 5693
5704 5705 5706 5707 5709 5710 5711 5712 5713 5713 5714 5715 5715 5716 5717 5717 5718 5718 5718 5718 5718 5718 5717 5717 5715 5714 5713 5712 5710 5709 5707 5705 5704 5702 5701 5699 5697 5696 5694 5693 5691 5689 5687
5701 5703 5704 5705 5706 5707 5708 5709 5709 5710 5711 5711 5712 5712 5713 5713 5714 5714 5714 5714 5714 5713 5712 5711 5710 5709 5708 5706 5705 5703 5701 5700 5698 5696 5695 5694 5692 5690 5689 5687 5685 5684 5682
5700 5701 5702 5703 5704 5704 5705 5706 5706 5707 5708 5708 5709 5709 5709 5710 5710 5710 5710 5710 5709 5709 5708 5707 5705 5704 5703 5702 5700 5699 5697 5696 5694 5692 5690 5689 5687 5685 5684 5682 5681 5679 5678
5699 5700 5700 5701 5702 5703 5703 5704 5704 5705 5705 5706 5706 5706 5707 5707 5707 5707 5707 5706 5706 5705 5704 5703 5702 5701 5700 5698 5697 5695 5693 5692 5690 5688 5686 5685 5683 5681 5680 5678 5677 5675 5674
5698 5699 5700 5701 5701 5702 5702 5702 5703 5703 5704 5704 5704 5704 5704 5704 5704 5704 5704 5703 5703 5702 5701 5700 5699 5698 5697 5695 5693 5692 5690 5688 5687 5685 5683 5681 5680 5678 5676 5675 5674 5672 5671
5699 5699 5700 5701 5702 5702 5702 5702 5703 5703 5703 5704 5703 5703 5703 5703 5702 5702 5702 5702 5701 5700 5700 5699 5697 5696 5694 5692 5691 5689 5688 5686 5684 5682 5681 5679 5677 5676 5674 5672 5671 5670 5669
5699 5700 5701 5702 5702 5702 5703 5703 5703 5703 5703 5703 5703 5703 5702 5702 5702 5702 5701 5701 5700 5700 5699 5697 5696 5694 5693 5691 5689 5688 5686 5684 5682 5680 5679 5677 5675 5674 5672 5671 5669 5668 5667
5700 5701 5702 5702 5703 5703 5703 5703 5704 5704 5704 5704 5703 5703 5703 5703 5702 5702 5702 5701 5700 5699 5698 5697 5695 5694 5692 5690 5688 5687 5685 5683 5681 5679 5677 5676 5674 5672 5671 5669 5668 5667 5666
5702 5702 5703 5704 5704 5704 5704 5705 5705 5705 5705 5705 5704 5704 5704 5704 5703 5703 5702 5702 5701 5700 5698 5697 5695 5693 5692 5690 5688 5686 5685 5683 5681 5679 5677 5675 5673 5672 5670 5669 5667 5666 5665
5703 5704 5705 5705 5706 5706 5706 5706 5706 5706 5706 5706 5706 5706 5706 5705 5705 5704 5704 5703 5702 5701 5699 5698 5696 5694 5693 5691 5689 5687 5685 5683 5681 5679 5677 5675 5673 5672 5670 5669 5667 5666 5664
5705 5706 5707 5707 5708 5708 5708 5708 5709 5709 5709 5709 5708 5708 5708 5708 5707 5707 5706 5705 5704 5702 5701 5699 5698 5696 5694 5692 5690 5688 5686 5684 5682 5680 5678 5676 5674 5672 5671 5669 5667 5666 5664
5708 5709 5710 5710 5711 5711 5711 5711 5712 5712 5712 5712 5711 5711 5711 5710 5710 5709 5708 5707 5706 5704 5703 5701 5700 5698 5696 5694 5692 5690 5688 5686 5683 5681 5679 5677 5675 5673 5671 5669 5668 5666 5664
5712 5712 5713 5713 5714 5714 5715 5715 5715 5715 5715 5715 5715 5714 5714 5713 5712 5711 5710 5709 5708 5706 5705 5703 5702 5700 5698 5696 5694 5692 5689 5687 5685 5683 5680 5678 5676 5674 5672 5670 5668 5666 5664
5716 5716 5717 5717 5718 5718 5718 5718 5719 5719 5718 5718 5718 5717 5717 5716 5715 5714 5713 5711 5710 5709 5707 5705 5704 5702 5700 5698 5695 5693 5691 5689 5686 5684 5682 5679 5677 5674 5672 5670 5668 5666 5664
5720 5721 5721 5721 5722 5722 5722 5722 5722 5722 5722 5722 5721 5720 5720 5719 5718 5717 5715 5714 5712 5711 5709 5707 5705 5703 5701 5699 5697 5694 5692 5690 5687 5685 5682 5680 5677 5675 5673 5670 5668 5666 5663
5725 5725 5725 5726 5726 5726 5726 5726 5726 5726 5725 5725 5724 5724 5723 5722 5721 5719 5718 5716 5715 5713 5711 5709 5707 5704 5702 5700 5698 5695 5693 5690 5688 5685 5683 5680 5677 5675 5672 5670 5667 5665 5662
5729 5730 5730 5730 5730 5730 5730 5730 5730 5729 5729 5728 5727 5727 5726 5724 5723 5722 5720 5719 5717 5715 5713 5710 5708 5706 5703 5701 5698 5696 5693 5691 5688 5685 5683 5680 5677 5674 5672 5669 5666 5664 5661